Regional Weather Roundup
Issued by NWS

Home | Current Version | Previous Version | Graphics & Text | Print | Product List | Glossary On
Versions: 1 2 3 4 5 6 7 8 9 10 11 12 13 14 15 16 17 18 19 20 21 22 23 24 25 26 27 28 29 30 31 32 33 34 35 36 37 38 39 40 41 42 43 44 45 46 47 48 49 50
000
ASUS43 KOAX 200410
RWRNE

WEATHER ROUNDUP FOR NEBRASKA
NATIONAL WEATHER SERVICE OMAHA NE
1000 PM CST FRI DEC 19 2014

NOTES: SATELLITE DATA IS BEING USED TO AUGMENT CLOUD COVER ABOVE
       12000 FEET.
       "FAIR" INDICATES FEW OR NO CLOUDS BELOW 12,000 FEET WITH NO
       SIGNIFICANT WEATHER AND/OR OBSTRUCTIONS TO VISIBILITY.

  * THESE STATIONS DO NOT REPORT WEATHER SUCH AS RAIN...SNOW OR FOG.

NEZ001>004-019>022-054>056-200500-
NEBRASKA PANHANDLE

CITY           SKY/WX    TMP DP  RH WIND       PRES   REMARKS
SCOTTSBLUFF    PTCLDY    21  16  81 N7        29.98F WCI  12
ALLIANCE       MOCLDY    16  14  92 W3        29.98S
CHADRON        PTCLDY    20  14  77 SW6       29.97S WCI  12
KIMBALL        PTCLDY    25  19  77 W5        29.99S WCI  19
SIDNEY         PTCLDY    19  15  84 W8        30.01F WCI   9
$$

NEZ057>060-069>072-079>082-200500-
SOUTHWEST NEBRASKA

CITY           SKY/WX    TMP DP  RH WIND       PRES   REMARKS
NORTH PLATTE   CLEAR     24  21  88 NW8       30.02S FOG     WCI  15
IMPERIAL       CLEAR     29  22  75 W8        30.03S WCI  21
LEXINGTON      CLEAR     23  22  95 CALM      30.02S FOG
MCCOOK         CLEAR     27  22  81 SW9       30.04R WCI  18
OGALLALA       CLEAR     22  21  93 W5        30.02S WCI  16
$$

NEZ005>010-023>029-035>040-094-200500-
NORTH CENTRAL NEBRASKA

CITY           SKY/WX    TMP DP  RH WIND       PRES   REMARKS
VALENTINE      CLEAR     16  14  92 SW6       29.99S WCI   7
AINSWORTH      CLEAR     20  19  94 W7        29.98S WCI  11
BROKEN BOW     PTCLDY    23  20  88 N3        29.99F FOG
O`NEILL        FOG       28  28 100 SW6       30.02R VSB 1/2 WCI  21
THEDFORD       CLEAR     24  22  91 W5        30.00R WCI  19
$$

NEZ041-046>049-061>064-073>077-083>087-200500-
SOUTH CENTRAL NEBRASKA

CITY           SKY/WX    TMP DP  RH WIND       PRES   REMARKS
GRAND ISLAND   FOG       33  32  96 S7        30.05F VSB 1/2 WCI  27
AURORA         FOG       33  33 100 S8        30.06S VSB 1/2 WCI  25
HASTINGS       FOG       33  32  96 S7        30.04S VSB 1/4 WCI  27
HEBRON         FOG       32  31  96 S7        30.10F VSB 3/4 WCI  26
HOLDREGE       CLEAR     29  28  94 S3        30.02S FOG
KEARNEY *      CLOUDY    27  25  93 CALM      30.04R VSB<1/4
YORK           FOG       32  32 100 S9        30.07F VSB 1/2 WCI  24
$$

NEZ011>018-030>034-042>045-200500-
NORTHEAST NEBRASKA

CITY           SKY/WX    TMP DP  RH WIND       PRES   REMARKS
NORFOLK        CLOUDY    33  30  88 SE7       30.05F WCI  27
ALBION         CLOUDY    32  30  91 S6        30.04F FOG     WCI  26
BLAIR          CLOUDY    32  30  92 S8        30.12S FOG     WCI  25
COLUMBUS *     CLOUDY    34  28  80 S8        30.09S WCI  27
FREMONT        CLOUDY    33  32  94 SE5       30.12S WCI  29
TEKAMAH        CLOUDY    32  30  92 SE10      30.14R WCI  24
WAYNE          CLOUDY    33  30  88 S10       30.08S WCI  25
$$

NEZ050>053-065>068-078-088>093-200500-
SOUTHEAST NEBRASKA

CITY           SKY/WX    TMP DP  RH WIND       PRES   REMARKS
LINCOLN        CLOUDY    33  30  88 S10       30.12F WCI  25
OMAHA EPPLEY   CLOUDY    32  29  88 S13       30.15F FOG     WCI  22
BEATRICE       CLOUDY    32  30  94 S7        30.14S WCI  26
FALLS CITY     CLOUDY    30  27  88 SE6       30.19R WCI  24
NEBRASKA CITY  CLOUDY    31  30  98 S8        30.15F WCI  23
PLATTSMOUTH    CLOUDY    30  28  92 SE7       30.14F FOG     WCI  23
$$

NEZ044-045-051>053-067-200500-
OMAHA AREA

CITY           SKY/WX    TMP DP  RH WIND       PRES   REMARKS
OMAHA EPPLEY   CLOUDY    32  29  88 S13       30.15F FOG     WCI  22
BLAIR          CLOUDY    32  30  92 S8        30.12S FOG     WCI  25
FREMONT        CLOUDY    33  32  94 SE5       30.12S WCI  29
MILLARD        CLOUDY    32  30  92 SE7       30.14S FOG     WCI  26
OFFUTT AFB     CLOUDY    32  28  86 SE8       30.14S WCI  25
PLATTSMOUTH    CLOUDY    30  28  92 SE7       30.14F FOG     WCI  23
WAHOO          CLOUDY    33  30  86 SE6       30.11F WCI  28
$$


USA.gov is the U.S. government's official web portal to all federal, state and local government web resources and services.